Language: 


Des rapports , des résumés tant et plus, au choix de chacun....


Données statistiques de la station
Quotidien Rapport Décembre 9, 2017 Unités:  Anglais    Métrique   les deux
« Précédent Jour
Suivant Jour »
Quotidien Hebdomadaire Mensuel Annuel Actuel
  Haut: Bas: Moyen:
Température: 39.6 °F 29.5 °F 33.8 °F
Pt de rosée: 35.6 °F 26.6 °F 31.5 °F
Humidité: 98 % 79 % 91 %
Vitesse du vent: 10.3 mph 0 mph 5.2 mph
Rafales: 14.8 mph - -
Vent:- - WSW
Pression: 30 in 29.7 in -
Précipitation: 0 in    
Historical Graphs
 
 
Données statistiques pour Décembre 9, 2017
Heure Température Point de rosée Pression Vent Vitesse du vent Refales Humidité Pluie (taux horaire)
00:01 32.4 °F 30.2 °F 30 in WSW 5.4 mph 7.6 mph 87 % 0 in
00:06 32.4 °F 30.2 °F 30 in West 5.6 mph 8.7 mph 88 % 0 in
00:22 32.4 °F 30.2 °F 30 in WSW 6 mph 9.6 mph 89 % 0 in
00:27 32.4 °F 30.2 °F 30 in West 5.6 mph 7.8 mph 89 % 0 in
00:32 32.2 °F 30.2 °F 30 in West 6.3 mph 7.8 mph 89 % 0 in
00:37 32.2 °F 30.2 °F 30 in West 6 mph 7.4 mph 89 % 0 in
00:42 32.4 °F 30.2 °F 29.9 in West 4.7 mph 7.2 mph 90 % 0 in
00:47 32.7 °F 30.2 °F 29.9 in West 4.9 mph 7.8 mph 91 % 0 in
00:52 32.7 °F 30.2 °F 29.9 in West 4 mph 8.5 mph 91 % 0 in
00:57 32.9 °F 32 °F 29.9 in West 5.4 mph 8.5 mph 91 % 0 in
01:02 32.9 °F 32 °F 29.9 in West 1.6 mph 8.7 mph 91 % 0 in
01:07 32.7 °F 30.2 °F 29.9 in West 7.2 mph 8.7 mph 91 % 0 in
01:17 32.7 °F 30.2 °F 30 in West 8.1 mph 8.1 mph 91 % 0 in
01:27 32.7 °F 30.2 °F 29.9 in West 6 mph 8.1 mph 91 % 0 in
01:32 32.5 °F 30.2 °F 29.9 in West 7.4 mph 7.4 mph 91 % 0 in
01:37 32.5 °F 30.2 °F 29.9 in WSW 6.3 mph 7.4 mph 91 % 0 in
01:42 32.4 °F 30.2 °F 30 in West 6.5 mph 7.4 mph 90 % 0 in
01:47 32.2 °F 30.2 °F 30 in WSW 0.9 mph 6.5 mph 90 % 0 in
01:52 32 °F 28.4 °F 30 in West 3.8 mph 6.5 mph 90 % 0 in
01:58 32 °F 28.4 °F 29.9 in WSW 3.6 mph 7.2 mph 91 % 0 in
02:08 31.5 °F 26.6 °F 29.9 in SW 4.3 mph 6.3 mph 90 % 0 in
02:13 31.3 °F 26.6 °F 30 in Calm   6.3 mph 90 % 0 in
02:18 31.1 °F 26.6 °F 30 in West 5.4 mph 6.3 mph 91 % 0 in
02:28 31.1 °F 26.6 °F 30 in Calm   6.5 mph 92 % 0 in
02:38 31.1 °F 26.6 °F 30 in West 3.8 mph 7.4 mph 92 % 0 in
02:43 31.1 °F 28.4 °F 30 in West 2.9 mph 7.2 mph 93 % 0 in
02:48 31.1 °F 28.4 °F 30 in West 5.4 mph 7.2 mph 93 % 0 in
03:04 30.9 °F 28.4 °F 30 in SW 3.6 mph 5.3 mph 94 % 0 in
03:14 30.7 °F 28.4 °F 30 in WSW 5.4 mph 6.9 mph 94 % 0 in
03:19 30.7 °F 28.4 °F 30 in WSW 4.3 mph 6.3 mph 94 % 0 in
03:24 30.7 °F 28.4 °F 30 in West 4 mph 6.3 mph 94 % 0 in
03:29 30.6 °F 26.6 °F 30 in West 4.9 mph 5.6 mph 94 % 0 in
03:34 30.7 °F 28.4 °F 30 in West 3.8 mph 5.6 mph 95 % 0 in
03:49 30.6 °F 28.4 °F 30 in Calm   6.3 mph 95 % 0 in
03:54 30.4 °F 28.4 °F 30 in WSW 0.9 mph 6 mph 95 % 0 in
04:02 30.4 °F 28.4 °F 30 in West 4.9 mph 6 mph 95 % 0 in
04:07 30.4 °F 28.4 °F 30 in West 6.5 mph 6.5 mph 95 % 0 in
04:13 30.6 °F 28.4 °F 29.9 in West 3.4 mph 8.7 mph 95 % 0 in
04:18 30.7 °F 28.4 °F 29.9 in West 5.8 mph 8.7 mph 96 % 0 in
04:23 30.9 °F 28.4 °F 29.9 in WSW 5.4 mph 7.6 mph 96 % 0 in
04:24 30.9 °F 28.4 °F 29.9 in West 7.8 mph 7.8 mph 96 % 0 in
04:27 30.9 °F 28.4 °F 30 in West 5.8 mph 7.8 mph 96 % 0 in
04:32 31.1 °F 28.4 °F 30 in West 6.5 mph 8.1 mph 97 % 0 in
04:42 31.1 °F 28.4 °F 30 in WSW 7.8 mph 7.8 mph 97 % 0 in
04:47 31.1 °F 28.4 °F 30 in West 8.5 mph 8.7 mph 97 % 0 in
04:57 31.1 °F 28.4 °F 30 in WSW 6 mph 8.1 mph 97 % 0 in
05:03 30.9 °F 28.4 °F 30 in West 7.6 mph 8.5 mph 96 % 0 in
05:08 30.9 °F 28.4 °F 30 in WSW 5.6 mph 8.7 mph 96 % 0 in
05:13 30.9 °F 28.4 °F 30 in WSW 5.8 mph 9.4 mph 96 % 0 in
05:18 30.9 °F 28.4 °F 30 in West 5.4 mph 9.4 mph 96 % 0 in
05:23 30.9 °F 28.4 °F 30 in WSW 5.8 mph 7.6 mph 96 % 0 in
05:28 30.9 °F 28.4 °F 30 in West 4.3 mph 8.5 mph 96 % 0 in
05:38 30.9 °F 28.4 °F 30 in WSW 2.9 mph 8.1 mph 97 % 0 in
05:43 30.9 °F 28.4 °F 30 in WSW 5.6 mph 8.1 mph 97 % 0 in
05:49 30.9 °F 28.4 °F 30 in West 5.4 mph 8.7 mph 97 % 0 in
05:54 30.9 °F 28.4 °F 30 in West 6.3 mph 8.7 mph 97 % 0 in
05:59 30.9 °F 28.4 °F 30 in West 4 mph 8.1 mph 97 % 0 in
06:09 30.9 °F 28.4 °F 30 in SW 5.8 mph 7.4 mph 97 % 0 in
06:14 30.7 °F 28.4 °F 30 in West 5.4 mph 7.6 mph 96 % 0 in
06:29 30.6 °F 28.4 °F 30 in West 3.1 mph 6.5 mph 96 % 0 in
06:34 30.6 °F 28.4 °F 30 in SW 6 mph 9.6 mph 96 % 0 in
06:39 30.6 °F 28.4 °F 30 in West 6.5 mph 9.6 mph 96 % 0 in
06:42 30.6 °F 28.4 °F 29.9 in West 4.3 mph 9.6 mph 96 % 0 in
06:47 30.6 °F 28.4 °F 29.9 in West 4.9 mph 7.4 mph 97 % 0 in
06:57 30.4 °F 28.4 °F 30 in Calm   5.6 mph 96 % 0 in
07:02 30 °F 28.4 °F 30 in WSW 3.4 mph 4.9 mph 96 % 0 in
07:07 29.8 °F 28.4 °F 30 in WSW 3.1 mph 6.3 mph 96 % 0 in
07:12 30 °F 28.4 °F 30 in West 4.3 mph 7.6 mph 96 % 0 in
07:17 30.2 °F 28.4 °F 30 in West 4.3 mph 7.6 mph 97 % 0 in
07:27 30 °F 28.4 °F 30 in West 4.9 mph 7.4 mph 97 % 0 in
07:32 30 °F 28.4 °F 30 in WSW 5.8 mph 7.4 mph 97 % 0 in
07:42 29.7 °F 28.4 °F 30 in WSW 4.9 mph 6.3 mph 97 % 0 in
07:52 29.7 °F 28.4 °F 30 in West 5.8 mph 6.5 mph 97 % 0 in
07:57 29.7 °F 28.4 °F 30 in WSW 4.3 mph 6.5 mph 97 % 0 in
08:02 29.7 °F 28.4 °F 30 in West 6.3 mph 6.5 mph 97 % 0 in
08:07 29.7 °F 28.4 °F 30 in WSW 5.8 mph 6.5 mph 97 % 0 in
08:17 29.7 °F 28.4 °F 29.9 in West 5.8 mph 8.5 mph 97 % 0 in
08:22 29.5 °F 28.4 °F 29.9 in WSW 6 mph 8.5 mph 98 % 0 in
08:28 29.7 °F 28.4 °F 30 in West 4.9 mph 6.9 mph 98 % 0 in
08:33 29.7 °F 28.4 °F 30 in West 2.5 mph 6.9 mph 98 % 0 in
08:38 29.7 °F 28.4 °F 30 in West 3.6 mph 7.6 mph 98 % 0 in
08:48 29.8 °F 28.4 °F 30 in WSW 6.3 mph 8.1 mph 98 % 0 in
08:53 29.8 °F 28.4 °F 30 in West 7.8 mph 9.6 mph 98 % 0 in
08:55 29.8 °F 28.4 °F 30 in WSW 5.4 mph 11 mph 98 % 0 in
09:01 29.8 °F 28.4 °F 30 in West 7.6 mph 11 mph 98 % 0 in
09:06 29.8 °F 28.4 °F 30 in West 6.5 mph 10.5 mph 98 % 0 in
09:11 31.1 °F 30.2 °F 30 in West 5.8 mph 10.5 mph 98 % 0 in
09:16 31.3 °F 30.2 °F 30 in WSW 8.5 mph 8.5 mph 98 % 0 in
09:21 31.3 °F 30.2 °F 30 in West 4 mph 9.8 mph 98 % 0 in
09:26 31.3 °F 30.2 °F 30 in West 6.5 mph 9.8 mph 98 % 0 in
09:31 31.3 °F 30.2 °F 30 in West 9.2 mph 9.2 mph 98 % 0 in
09:32 31.3 °F 30.2 °F 30 in West 6.7 mph 9.2 mph 98 % 0 in
09:38 31.3 °F 30.2 °F 30 in West 4.9 mph 9.2 mph 98 % 0 in
09:58 31.3 °F 30.2 °F 30 in West 7.8 mph 8.7 mph 98 % 0 in
10:03 31.3 °F 30.2 °F 30 in WSW 6.3 mph 9.8 mph 98 % 0 in
10:08 31.3 °F 30.2 °F 30 in WSW 7.6 mph 9.8 mph 98 % 0 in
10:18 31.3 °F 30.2 °F 30 in WSW 5.6 mph 8.5 mph 98 % 0 in
10:23 31.3 °F 30.2 °F 30 in WSW 4.3 mph 8.5 mph 98 % 0 in
10:28 31.3 °F 30.2 °F 30 in WSW 4 mph 7.6 mph 98 % 0 in
10:33 31.3 °F 30.2 °F 30 in WSW 6.9 mph 7.6 mph 98 % 0 in
10:38 34.7 °F 33.8 °F 30 in WSW 5.4 mph 6.9 mph 97 % 0 in
10:43 34.9 °F 33.8 °F 30 in West 5.6 mph 7.6 mph 97 % 0 in
10:53 35.2 °F 33.8 °F 30 in WSW 5.8 mph 10.3 mph 95 % 0 in
10:58 35.4 °F 33.8 °F 30 in West 8.7 mph 9.8 mph 94 % 0 in
11:03 35.6 °F 33.8 °F 30 in WSW 7.4 mph 10.3 mph 93 % 0 in
11:08 36 °F 33.8 °F 30 in WSW 8.5 mph 10.3 mph 93 % 0 in
11:13 36.1 °F 33.8 °F 30 in WSW 7.8 mph 8.7 mph 92 % 0 in
11:19 36.3 °F 33.8 °F 30 in SSW 6.3 mph 8.7 mph 92 % 0 in
11:24 36.7 °F 35.6 °F 30 in WSW 10.3 mph 10.5 mph 91 % 0 in
11:29 36.9 °F 33.8 °F 30 in WSW 8.1 mph 10.5 mph 90 % 0 in
11:34 37 °F 35.6 °F 30 in WSW 7.2 mph 10.5 mph 90 % 0 in
11:44 37.4 °F 35.6 °F 30 in West 8.7 mph 11.2 mph 89 % 0 in
12:04 37.9 °F 35.6 °F 30 in WSW 6.5 mph 10.5 mph 87 % 0 in
12:09 38.3 °F 35.6 °F 30 in WSW 8.1 mph 10.5 mph 87 % 0 in
12:14 38.5 °F 35.6 °F 30 in WSW 8.7 mph 11 mph 86 % 0 in
12:19 38.7 °F 35.6 °F 30 in WSW 6 mph 11 mph 86 % 0 in
12:29 39 °F 35.6 °F 30 in WSW 8.7 mph 12.3 mph 85 % 0 in
12:44 39.4 °F 33.8 °F 30 in WSW 6.5 mph 12.1 mph 83 % 0 in
12:49 39.6 °F 35.6 °F 30 in WNW 6.5 mph 10.5 mph 82 % 0 in
12:54 39.6 °F 33.8 °F 30 in West 8.1 mph 12.5 mph 81 % 0 in
13:00 39.2 °F 33.8 °F 30 in West 7.8 mph 13 mph 79 % 0 in
13:05 38.8 °F 33.8 °F 30 in SSW 5.4 mph 13 mph 79 % 0 in
13:10 38.7 °F 33.8 °F 30 in WSW 8.1 mph 12.1 mph 80 % 0 in
13:15 38.5 °F 33.8 °F 30 in West 6 mph 12.5 mph 80 % 0 in
13:20 38.5 °F 33.8 °F 30 in WSW 8.5 mph 13 mph 80 % 0 in
13:25 38.5 °F 33.8 °F 30 in West 6 mph 13 mph 80 % 0 in
13:30 38.5 °F 33.8 °F 30 in West 6.3 mph 11.9 mph 81 % 0 in
13:35 38.5 °F 33.8 °F 30 in West 8.5 mph 12.5 mph 80 % 0 in
13:40 38.3 °F 33.8 °F 30 in SW 10.1 mph 14.8 mph 79 % 0 in
13:45 38.3 °F 33.8 °F 30 in West 6 mph 14.8 mph 79 % 0 in
13:50 38.3 °F 33.8 °F 30 in West 8.5 mph 12.8 mph 80 % 0 in
13:56 38.1 °F 32 °F 30 in West 5.6 mph 11 mph 79 % 0 in
14:01 38.1 °F 33.8 °F 30 in WSW 7.8 mph 11 mph 80 % 0 in
14:06 38.3 °F 33.8 °F 30 in West 6 mph 9.8 mph 80 % 0 in
14:11 38.3 °F 33.8 °F 30 in West 8.7 mph 9.6 mph 81 % 0 in
14:16 38.3 °F 33.8 °F 30 in WSW 5.8 mph 10.1 mph 80 % 0 in
14:21 38.5 °F 33.8 °F 30 in West 6.5 mph 10.1 mph 79 % 0 in
14:31 38.5 °F 33.8 °F 29.9 in WSW 5.8 mph 9.2 mph 79 % 0 in
14:36 38.5 °F 33.8 °F 29.9 in WSW 7.4 mph 8.7 mph 79 % 0 in
14:51 38.5 °F 33.8 °F 29.9 in West 4 mph 8.1 mph 81 % 0 in
15:01 38.3 °F 33.8 °F 29.9 in WSW 4.3 mph 6.3 mph 82 % 0 in
15:06 38.1 °F 33.8 °F 29.9 in WSW 4 mph 6.3 mph 82 % 0 in
15:11 37.9 °F 33.8 °F 29.9 in SW 4.7 mph 6.3 mph 82 % 0 in
15:16 37.9 °F 33.8 °F 29.9 in WSW 4.9 mph 6.3 mph 82 % 0 in
15:21 37.9 °F 33.8 °F 29.9 in West 5.8 mph 6.5 mph 82 % 0 in
15:26 37.9 °F 33.8 °F 29.9 in WSW 4.7 mph 8.1 mph 82 % 0 in
15:41 38.7 °F 33.8 °F 29.9 in Calm   7.2 mph 82 % 0 in
15:46 38.5 °F 33.8 °F 29.9 in WSW 4.5 mph 7.6 mph 82 % 0 in
16:02 38.1 °F 33.8 °F 29.9 in SSW 3.8 mph 5.8 mph 81 % 0 in
16:07 38.1 °F 33.8 °F 29.9 in SW 4.9 mph 5.6 mph 81 % 0 in
16:12 37.9 °F 33.8 °F 29.9 in SSW 2.9 mph 5.6 mph 80 % 0 in
16:17 37.9 °F 33.8 °F 29.9 in Calm   5.8 mph 80 % 0 in
16:27 37.4 °F 32 °F 29.9 in SSW 4.3 mph 5.8 mph 80 % 0 in
16:32 37.2 °F 32 °F 29.9 in SW 3.8 mph 5.6 mph 81 % 0 in
16:37 37 °F 32 °F 29.9 in Calm   4.7 mph 81 % 0 in
16:42 36.9 °F 32 °F 29.9 in SW 3.1 mph 4.9 mph 81 % 0 in
16:47 36.7 °F 32 °F 29.9 in SSW 3.1 mph 4.9 mph 81 % 0 in
16:52 36.5 °F 32 °F 29.9 in Calm   5.4 mph 82 % 0 in
16:57 36.5 °F 32 °F 29.9 in SW 4.9 mph 6 mph 82 % 0 in
17:02 36.5 °F 32 °F 29.9 in SW 5.4 mph 6 mph 82 % 0 in
17:07 36.3 °F 32 °F 29.9 in WSW 4.7 mph 5.8 mph 82 % 0 in
17:12 35.8 °F 30.2 °F 29.9 in WSW 5.6 mph 6 mph 81 % 0 in
17:17 35.6 °F 30.2 °F 29.9 in WSW 5.4 mph 6.3 mph 81 % 0 in
17:22 35.2 °F 30.2 °F 29.9 in WSW 5.6 mph 6.3 mph 82 % 0 in
17:27 34.9 °F 30.2 °F 29.9 in WSW 4.9 mph 6 mph 82 % 0 in
17:32 34.7 °F 30.2 °F 29.9 in Calm   5.8 mph 83 % 0 in
17:38 34.5 °F 30.2 °F 29.9 in WSW 4.9 mph 5.8 mph 83 % 0 in
17:39 34.5 °F 30.2 °F 29.9 in WSW 3.1 mph 5.8 mph 83 % 0 in
17:44 34.3 °F 30.2 °F 29.9 in WSW 5.4 mph 5.6 mph 84 % 0 in
17:49 34.7 °F 32 °F 29.9 in SW 4.9 mph 6.3 mph 85 % 0 in
17:54 34.9 °F 32 °F 29.9 in SSW 3.8 mph 6.3 mph 85 % 0 in
17:59 35.1 °F 32 °F 29.9 in SSW 6.3 mph 6.3 mph 85 % 0 in
18:09 35.4 °F 32 °F 29.9 in SSW 6.5 mph 8.7 mph 85 % 0 in
18:14 35.4 °F 32 °F 29.9 in SSW 4 mph 8.1 mph 86 % 0 in
18:20 35.2 °F 32 °F 29.9 in WSW 4.9 mph 7.6 mph 86 % 0 in
18:25 35.2 °F 32 °F 29.9 in SW 4.9 mph 7.4 mph 86 % 0 in
18:30 35.2 °F 32 °F 29.9 in WSW 7.4 mph 8.7 mph 87 % 0 in
18:45 35.1 °F 32 °F 29.9 in SSW 6 mph 8.9 mph 89 % 0 in
18:50 35.1 °F 32 °F 29.9 in SW 6.3 mph 9.8 mph 89 % 0 in
18:55 34.9 °F 32 °F 29.9 in SSW 8.5 mph 10.3 mph 90 % 0 in
19:00 34.9 °F 33.8 °F 29.9 in SSW 5.8 mph 10.3 mph 91 % 0 in
19:05 34.9 °F 33.8 °F 29.9 in SSW 5.8 mph 8.7 mph 91 % 0 in
19:10 34.7 °F 33.8 °F 29.9 in WSW 4 mph 8.7 mph 91 % 0 in
19:25 34.3 °F 32 °F 29.9 in South 6.5 mph 6.7 mph 92 % 0 in
19:40 34.3 °F 33.8 °F 29.9 in SW 4.3 mph 7.8 mph 94 % 0 in
19:50 34.2 °F 33.8 °F 29.9 in SSW 5.8 mph 7.4 mph 94 % 0 in
19:55 34.2 °F 33.8 °F 29.9 in Calm   7.4 mph 94 % 0 in
20:00 34.2 °F 33.8 °F 29.9 in SW 5.4 mph 6.5 mph 95 % 0 in
20:06 34.2 °F 33.8 °F 29.9 in SSW 4.9 mph 8.7 mph 95 % 0 in
20:16 34.3 °F 33.8 °F 29.9 in WSW 4.3 mph 7.2 mph 96 % 0 in
20:21 34.3 °F 33.8 °F 29.9 in South 6.5 mph 7.8 mph 96 % 0 in
20:31 34.5 °F 33.8 °F 29.9 in South 5.4 mph 6.5 mph 97 % 0 in
20:36 34.5 °F 33.8 °F 29.9 in SW 4.3 mph 6.7 mph 97 % 0 in
20:41 34.7 °F 33.8 °F 29.9 in SW 6 mph 6.7 mph 97 % 0 in
20:46 34.9 °F 33.8 °F 29.9 in SW 8.5 mph 8.5 mph 97 % 0 in
20:51 34.9 °F 33.8 °F 29.9 in SW 4 mph 8.5 mph 97 % 0 in
20:56 34.9 °F 35.6 °F 29.8 in WSW 8.1 mph 8.7 mph 98 % 0 in
21:01 34.9 °F 35.6 °F 29.8 in WSW 4.9 mph 8.7 mph 98 % 0 in
21:06 35.1 °F 35.6 °F 29.8 in SW 5.8 mph 8.7 mph 98 % 0 in
21:16 34.9 °F 35.6 °F 29.8 in SW 4.9 mph 7.8 mph 98 % 0 in
21:21 35.1 °F 35.6 °F 29.8 in WSW 6.5 mph 8.1 mph 98 % 0 in
21:26 35.1 °F 35.6 °F 29.8 in SW 6.7 mph 8.1 mph 98 % 0 in
21:37 34.9 °F 35.6 °F 29.8 in SSW 4.9 mph 7.2 mph 98 % 0 in
21:47 35.1 °F 35.6 °F 29.8 in WSW 4.9 mph 7.2 mph 98 % 0 in
22:02 34.9 °F 35.6 °F 29.8 in SW 6.7 mph 6.7 mph 98 % 0 in
22:07 34.9 °F 35.6 °F 29.8 in SSW 3.6 mph 7.4 mph 98 % 0 in
22:12 34.9 °F 35.6 °F 29.8 in SW 5.4 mph 7.4 mph 98 % 0 in
22:22 34.7 °F 35.6 °F 29.8 in SSW 4.3 mph 5.8 mph 98 % 0 in
22:32 34.5 °F 33.8 °F 29.8 in Calm   4.9 mph 98 % 0 in
22:37 34.5 °F 33.8 °F 29.8 in West 3.6 mph 3.6 mph 98 % 0 in
22:47 34.5 °F 33.8 °F 29.8 in SSW 2.9 mph 4.3 mph 98 % 0 in
22:52 34.5 °F 33.8 °F 29.8 in Calm   4.3 mph 98 % 0 in
22:57 34.5 °F 33.8 °F 29.8 in South 1.6 mph 4.3 mph 98 % 0 in
23:08 34.5 °F 33.8 °F 29.8 in Calm   3.4 mph 98 % 0 in
23:13 34.5 °F 33.8 °F 29.7 in Calm   3.6 mph 98 % 0 in
23:18 34.5 °F 33.8 °F 29.7 in SSW 3.1 mph 5.4 mph 98 % 0 in
23:23 34.5 °F 33.8 °F 29.7 in SW 2.7 mph 5.4 mph 98 % 0 in
23:28 34.5 °F 33.8 °F 29.7 in Calm   4.9 mph 98 % 0 in
23:33 34.5 °F 33.8 °F 29.7 in SSW 2.7 mph 4 mph 98 % 0 in
23:38 34.5 °F 33.8 °F 29.7 in Calm   4 mph 98 % 0 in
23:53 34.5 °F 33.8 °F 29.7 in SW 5.6 mph 7.6 mph 98 % 0 in
23:58 34.5 °F 33.8 °F 29.7 in SSW 3.8 mph 7.2 mph 98 % 0 in
Le Gheer Warneton
Courtoisie de Weather Underground - 2 mb

Mise a jour : 18/12/2017 17:39:11
Généré par Cumulus 1.9.4 (1099)